RH
35 33 37 49 70 79 74 70 67 66 66 70 76 76 72 68 68 71 72 73 77 83 89 93 97 101 102 100 98 99 101 102 101 99 93 87 93 99 94 90 88 87 88 87 84 80 77 76 74 74 74 75 76 75 74 73 72 70 64 52 39 28 21 19 23 27 32 34 34 33 32 32 32 32 32 32 31 31 31 32 33 33 33 34 35 35 36 36
37 40 45 52 72 86 82 76 69 67 68 71 75 77 76 72 67 65 68 75 84 91 96 99 100 102 104 103 104 107 107 103 97 89 84 84 87 85 83 86 92 96 93 86 81 77 74 73 73 75 76 77 76 76 75 72 64 51 37 26 21 22 26 30 32 33 32 29 27 26 26 27 29 31 32 33 34 33 33 33 34 35 35 35 36 36 37 37
38 42 47 54 69 89 98 93 85 78 76 77 80 86 89 84 77 74 77 85 94 103 107 103 98 100 103 104 103 100 95 89 83 78 78 78 79 82 88 98 107 104 90 81 77 75 76 77 79 79 79 79 78 74 65 51 36 25 23 26 29 32 32 30 27 25 23 23 24 25 27 30 31 32 33 33 34 33 33 32 32 33 33 33 33 33 33 33
38 46 50 57 68 85 99 105 105 100 95 95 96 102 107 103 97 95 96 101 107 110 108 100 96 96 94 90 86 81 78 76 74 73 73 75 83 93 100 107 109 98 85 82 82 83 84 83 82 80 80 77 66 51 35 26 23 26 30 31 29 26 24 23 22 23 23 24 24 25 24 24 24 24 24 23 24 23 22 22 23 23 23 23 23 23 23 23
32 44 52 60 68 75 86 98 107 109 108 108 108 107 107 107 108 110 107 107 109 108 102 95 91 86 81 79 77 76 75 73 70 70 74 83 96 103 105 105 100 92 89 91 91 89 85 83 81 76 67 52 36 26 23 25 27 28 26 24 23 22 23 23 23 22 20 19 18 17 16 16 17 17 18 18 19 18 18 19 20 20 21 21 21 21 21 21
26 40 54 60 64 67 73 85 94 100 103 104 106 103 100 101 103 104 100 101 104 102 96 90 86 83 82 81 79 78 75 70 70 77 88 99 105 105 104 101 97 97 97 95 91 87 84 79 68 52 37 27 23 24 26 25 23 22 22 22 22 21 19 18 17 16 15 16 16 17 18 18 19 20 20 21 21 21 21 22 22 23 24 24 25 24 24 24
23 32 51 62 64 68 71 78 87 93 97 103 109 105 99 96 95 94 93 96 98 93 89 89 89 88 86 84 82 79 74 74 83 94 103 106 105 104 103 102 102 101 97 92 88 82 71 55 38 28 24 25 26 25 23 22 21 21 20 18 17 16 16 16 16 17 18 19 19 20 21 21 22 23 23 22 22 22 23 23 23 24 24 25 25 26 26 25
25 24 43 65 69 72 79 84 89 95 100 106 108 103 100 99 97 95 92 93 93 90 92 95 92 88 87 86 83 80 80 88 99 105 107 106 105 104 103 101 97 95 91 86 74 57 41 29 25 25 26 25 23 21 20 19 17 16 15 16 16 17 18 18 19 20 20 21 22 23 23 24 25 26 25 24 24 24 25 25 25 24 25 25 25 26 26 26
31 26 33 61 79 83 89 92 92 94 96 98 97 98 101 101 99 96 92 93 94 96 98 95 91 91 91 88 86 89 96 103 107 108 107 105 104 101 98 95 92 88 78 62 44 31 26 26 26 25 23 20 18 17 16 15 16 17 18 19 19 20 20 21 22 22 24 24 25 26 26 29 31 30 27 26 27 28 28 27 26 25 25 26 27 27 27 26
30 31 26 45 80 98 98 94 90 88 89 90 92 95 97 97 95 94 93 95 98 101 101 97 96 96 94 93 98 104 106 108 108 108 106 102 100 97 94 91 83 67 48 34 27 26 26 25 22 19 18 16 16 16 17 19 19 20 20 21 22 22 23 24 24 26 27 28 29 29 30 34 36 33 30 31 33 35 35 34 31 30 30 31 31 32 31 32
22 26 25 30 59 89 95 92 89 87 89 91 93 93 92 91 91 92 95 99 103 106 105 104 103 100 100 104 110 109 107 108 108 105 102 98 96 94 86 72 54 38 28 26 26 24 21 19 17 16 16 17 19 20 21 21 21 22 23 24 25 26 27 27 27 28 30 30 30 30 31 36 37 33 32 35 37 38 38 38 37 35 35 34 34 35 36 37
19 20 26 29 37 57 75 81 83 85 88 89 88 87 88 91 93 97 102 106 108 110 111 110 105 103 106 109 109 107 106 106 104 100 98 95 88 76 58 41 31 27 26 24 21 18 16 16 17 18 20 21 21 22 22 23 24 26 26 27 28 28 28 28 28 28 29 29 30 29 31 37 38 33 34 36 38 38 38 38 38 37 35 35 34 35 36 37
21 18 24 34 38 44 55 64 72 78 82 82 83 87 93 97 101 105 108 109 109 110 111 108 104 105 106 106 107 107 105 102 100 96 89 79 62 44 32 28 27 24 21 18 16 16 17 19 20 21 22 22 23 24 26 26 27 28 28 28 27 27 26 27 28 28 29 30 31 30 31 38 40 35 34 37 37 37 38 38 38 38 37 36 35 35 36 37
23 20 22 32 43 49 53 60 69 76 79 83 88 94 100 105 108 110 110 107 106 105 105 103 103 106 108 108 106 104 101 97 92 80 64 47 34 28 27 25 21 18 16 17 19 20 21 22 22 23 24 26 26 27 27 27 27 27 26 26 26 27 28 28 29 31 32 33 34 31 28 36 40 36 35 35 36 38 40 41 40 40 39 38 38 37 36 36
24 25 24 26 34 43 49 58 67 74 81 87 92 97 103 107 108 107 104 101 98 96 97 101 106 108 109 107 102 98 94 82 66 49 36 29 26 25 21 18 17 18 20 22 23 23 24 24 25 27 27 27 27 26 27 26 26 25 25 27 28 30 32 31 30 30 33 33 33 29 25 31 37 37 35 33 37 41 41 42 41 41 40 41 42 41 39 37
23 28 28 27 28 32 39 47 57 65 72 79 86 92 95 96 95 93 91 90 89 92 99 107 108 105 104 102 95 84 69 51 37 30 27 25 22 18 17 18 21 22 23 24 25 26 26 27 28 27 27 26 26 26 26 25 25 26 28 30 31 32 33 32 30 28 30 32 32 29 24 28 35 36 32 32 37 38 37 37 36 37 41 46 48 49 47 42
19 26 30 32 31 32 35 41 49 56 62 69 76 82 86 87 86 86 86 88 92 98 103 104 101 99 97 88 71 53 39 31 28 26 22 19 17 18 20 22 24 25 26 27 27 27 27 27 26 26 26 25 24 25 25 26 27 28 30 32 31 33 32 32 33 31 33 36 37 35 28 31 41 40 34 34 34 32 31 32 32 34 39 44 47 48 47 44
15 20 26 30 32 34 36 40 47 53 60 66 72 78 82 83 84 87 90 92 94 95 96 96 93 87 74 57 41 32 29 27 23 20 18 18 20 22 23 25 26 27 28 27 27 26 25 25 25 25 24 24 24 25 25 26 27 29 32 33 34 38 40 39 39 39 40 41 44 39 31 38 50 50 46 42 35 30 30 30 31 33 34 36 38 40 41 42
11 15 19 24 29 35 40 45 51 57 62 67 70 72 72 73 76 80 83 84 86 89 90 86 74 58 43 34 31 28 25 20 18 18 20 23 24 25 26 27 27 26 26 25 25 25 25 25 24 24 23 24 25 27 27 27 28 31 35 37 38 42 48 48 45 46 46 46 49 42 34 45 57 60 63 55 41 35 34 34 33 32 32 33 34 34 35 37
9 11 14 19 24 31 39 45 51 54 55 55 54 52 52 56 61 66 73 79 83 81 73 59 45 36 32 30 26 21 19 18 20 23 24 26 26 26 26 26 25 24 24 24 24 24 24 24 24 25 26 27 29 30 31 31 33 36 39 42 42 43 50 53 50 50 51 49 49 40 33 46 59 66 68 56 44 42 39 36 34 33 33 33 32 31 31 32
7 9 11 15 18 23 28 32 35 36 34 33 32 35 42 51 61 70 75 75 68 57 45 37 33 31 27 23 19 19 20 22 24 26 26 27 26 25 24 23 23 24 24 24 24 24 24 25 26 28 29 30 32 34 36 36 36 39 42 45 46 46 51 57 54 52 56 55 51 40 32 45 62 69 65 53 46 43 38 36 35 34 32 30 31 31 31 30
7 8 10 13 16 18 20 22 23 24 24 28 35 47 59 68 72 71 63 53 44 38 34 32 29 24 20 18 19 22 25 26 28 27 26 25 23 23 22 22 22 24 25 24 25 26 28 28 29 31 33 34 36 37 40 40 39 40 43 45 48 49 50 55 57 55 58 61 55 40 31 45 63 67 59 51 45 40 38 39 36 33 31 31 31 29 28 27
9 10 11 13 15 17 19 21 24 29 36 47 59 68 70 67 59 50 43 38 36 33 29 25 21 19 19 21 24 27 28 28 27 25 23 22 21 21 20 21 23 24 26 26 27 29 30 32 33 34 36 37 39 40 42 43 43 43 45 47 49 51 50 51 53 54 58 62 55 37 29 41 55 58 51 41 36 33 34 34 30 29 30 29 27 24 23 22
10 11 13 15 18 21 26 33 40 50 60 66 66 60 53 46 40 36 34 33 31 26 22 20 20 21 23 27 29 29 28 25 23 22 21 20 20 20 20 22 24 27 30 30 31 33 35 36 36 37 39 40 40 41 42 45 48 48 50 52 53 55 57 55 53 53 58 64 57 37 29 37 48 51 42 30 26 27 26 25 24 26 25 23 21 20 19 18
16 18 21 26 32 39 47 54 59 62 60 53 46 41 38 36 34 32 30 27 23 20 19 21 24 26 27 30 29 26 24 22 20 20 20 20 21 22 22 25 29 34 37 37 37 39 39 39 39 39 40 41 42 43 44 46 49 52 54 56 56 59 62 60 58 56 58 63 57 38 27 30 40 43 34 24 24 23 22 22 22 21 20 18 18 17 17 16
26 32 39 45 51 56 56 55 50 45 40 36 36 35 33 31 30 28 24 21 19 20 23 26 28 29 28 28 25 22 20 19 20 21 22 23 23 24 25 28 33 38 41 41 40 41 42 41 42 42 41 43 45 45 45 46 48 51 53 57 58 60 63 61 60 59 61 62 53 40 30 27 34 38 28 22 22 21 21 20 19 18 17 17 17 16 16 15
43 48 51 51 49 46 40 36 34 35 36 34 32 30 28 28 25 22 19 19 22 26 29 29 29 28 26 24 21 19 19 19 21 23 24 26 27 29 31 33 36 39 42 43 43 44 45 45 45 46 45 45 46 46 46 46 48 50 52 56 57 61 64 60 59 61 65 64 52 42 36 30 32 34 25 21 21 19 19 18 17 17 16 17 16 16 15 14
42 40 38 34 33 32 33 34 35 34 31 29 28 28 27 23 19 19 21 23 27 29 29 29 27 25 22 20 18 19 20 20 22 24 27 31 35 38 39 39 38 38 41 45 47 48 48 48 48 48 48 46 45 46 46 45 48 49 50 54 55 59 64 61 58 61 66 67 52 40 38 32 30 29 22 20 20 18 18 17 17 17 16 16 15 14 14 12
28 29 30 31 33 35 34 32 28 26 27 28 28 25 21 19 20 24 25 27 30 30 28 26 23 21 19 19 20 22 24 26 30 33 37 41 44 46 45 45 43 41 41 45 49 50 51 50 49 50 51 51 48 46 47 46 46 48 48 53 56 59 65 62 58 60 66 68 54 41 39 33 28 26 21 20 20 19 18 17 17 17 16 15 14 13 12 10
32 33 33 33 32 29 26 25 26 29 29 27 22 19 20 23 27 28 28 30 31 28 24 22 21 20 19 20 22 24 28 32 36 42 46 47 48 48 48 50 50 47 45 46 49 50 51 51 50 51 52 53 53 50 50 48 47 48 47 50 55 62 69 67 60 60 67 71 57 42 39 33 25 23 20 19 19 18 18 17 17 16 15 14 12 11 10 9
30 29 28 26 24 23 26 29 30 27 23 19 19 23 26 28 29 30 30 29 27 24 22 20 19 19 20 22 25 27 31 35 40 44 46 46 46 49 53 56 58 58 56 53 53 51 52 52 52 53 52 52 54 54 54 53 51 51 50 48 50 55 63 64 59 56 63 69 58 41 37 31 23 21 18 17 18 17 17 17 16 15 13 12 10 9 9 8
24 24 22 23 25 29 31 29 24 20 19 21 24 27 29 30 31 30 28 25 23 22 21 20 19 21 24 29 32 35 39 43 46 48 48 47 49 53 58 62 63 64 63 62 62 57 54 54 54 54 53 51 52 54 57 59 57 55 53 51 48 48 51 53 51 47 51 60 55 40 34 27 21 20 17 16 16 16 16 16 14 13 11 10 9 8 7 6
21 21 24 29 32 31 26 21 19 20 22 26 28 30 31 31 29 27 24 23 22 21 21 21 23 26 31 35 39 42 47 50 51 49 48 48 51 55 58 63 64 64 64 64 63 60 56 55 54 54 54 52 50 51 53 56 58 57 54 53 51 49 48 48 48 41 40 49 49 39 31 24 18 18 16 15 15 15 15 14 12 11 10 8 7 6 6 5
24 28 32 32 27 22 19 19 22 25 27 30 32 32 31 28 26 24 23 22 21 21 23 26 29 33 37 40 44 49 52 54 51 48 48 49 55 60 63 66 67 68 68 65 61 58 54 52 53 52 53 53 52 51 51 52 55 56 54 53 53 54 53 52 54 46 37 41 44 37 29 21 16 15 15 14 14 14 13 12 11 10 8 7 6 5 5 5
32 33 29 23 18 18 21 24 26 28 31 33 33 31 29 26 24 23 23 23 24 25 29 34 38 41 44 47 51 56 56 54 51 50 54 60 66 69 69 69 69 71 70 63 58 58 54 51 52 52 52 54 54 52 52 52 54 56 55 56 57 58 57 55 57 53 40 38 42 37 27 19 15 14 14 13 13 13 12 11 10 8 7 6 5 5 5 5
31 25 20 18 19 22 25 28 30 32 34 33 31 29 26 25 23 24 25 26 30 34 38 42 44 46 50 54 57 58 56 54 57 61 65 68 69 68 69 69 70 72 68 58 54 58 57 53 52 52 53 55 57 56 55 55 56 57 57 58 59 61 61 57 56 53 42 35 39 38 27 17 14 13 13 13 12 11 10 9 8 7 6 5 5 5 5 4
22 18 18 21 24 27 29 31 33 35 33 31 29 27 25 24 25 26 28 32 38 41 43 45 48 49 53 57 57 56 54 57 64 67 66 66 66 67 68 69 70 70 63 56 53 56 58 56 53 52 54 56 58 59 60 59 59 60 61 60 59 58 60 59 55 53 43 32 33 37 29 18 14 13 12 12 12 10 10 9 7 7 5 5 5 5 4 4
17 19 22 26 28 31 33 34 35 34 31 29 27 26 25 25 27 29 34 40 43 44 46 49 51 53 56 56 55 52 54 60 65 65 64 63 63 66 67 68 70 67 59 56 54 53 56 58 53 51 55 58 59 61 63 63 62 63 63 61 59 57 58 59 59 56 47 32 28 33 30 19 13 13 12 12 12 11 10 9 7 6 5 5 5 5 5 5
20 23 26 29 32 34 35 36 35 32 29 28 27 26 26 28 31 35 40 44 46 46 48 51 52 55 56 54 52 51 55 61 62 62 65 64 63 64 64 66 68 64 58 55 53 52 55 57 55 54 56 58 58 60 63 65 64 64 63 61 60 59 57 58 63 63 54 38 28 29 29 20 13 13 12 12 12 11 9 8 7 6 5 5 5 5 5 5
24 27 30 32 34 36 37 35 32 30 29 28 27 27 29 32 36 40 45 47 48 48 49 51 52 54 54 52 50 52 56 60 62 64 65 64 63 62 63 68 67 61 56 54 53 53 53 56 59 59 58 59 61 61 63 66 66 64 63 62 60 59 57 55 59 65 61 46 33 31 29 21 14 12 12 12 11 10 8 7 6 5 5 5 5 4 4 4
27 31 35 36 36 36 36 33 30 29 29 28 29 30 33 37 41 46 48 48 49 49 48 50 51 53 53 51 51 54 59 63 65 67 65 63 64 62 64 69 65 59 56 55 54 54 52 54 60 60 58 58 61 62 61 63 65 64 62 61 61 59 57 54 53 59 63 52 39 35 31 22 15 13 11 11 11 9 8 6 5 5 5 4 5 4 4 4
29 33 38 39 38 36 33 31 30 30 30 30 32 34 37 41 47 50 50 49 50 49 49 50 52 54 55 53 55 59 63 67 70 69 65 63 64 65 67 69 64 59 57 56 56 56 54 53 56 59 58 58 59 63 65 64 65 67 66 63 60 59 59 58 54 55 61 58 42 34 33 24 15 13 11 11 11 9 8 7 5 5 5 5 5 5 5 5
32 37 39 38 37 34 30 30 31 31 31 32 35 37 40 45 49 51 51 51 50 49 51 52 53 55 56 57 61 64 66 69 70 68 65 64 65 67 69 69 64 61 60 58 58 59 57 55 55 58 62 63 62 65 72 73 70 68 69 66 62 61 60 60 58 54 57 61 47 33 30 25 16 13 12 10 11 10 9 7 6 5 5 5 5 4 5 4
37 39 38 37 34 32 31 32 33 32 33 35 37 40 43 47 50 51 52 51 50 50 52 54 55 56 57 58 62 63 65 69 69 68 67 66 65 67 70 69 65 63 62 62 63 64 64 62 58 58 62 64 60 60 66 71 70 67 69 70 66 63 61 61 61 54 51 57 53 35 26 24 17 13 12 11 11 10 9 7 5 5 4 4 4 4 4 4
41 40 37 34 31 31 34 34 33 34 35 37 40 42 45 48 50 53 54 51 50 50 53 55 58 60 60 58 58 61 64 68 69 69 68 66 66 68 69 66 64 65 66 65 66 69 72 72 67 63 66 68 63 57 59 64 67 64 65 70 69 65 63 62 60 55 48 49 51 40 26 21 16 12 11 11 10 8 7 5 4 4 4 4 3 3 3 3
41 38 35 32 31 34 37 35 35 36 37 38 42 44 47 49 53 56 55 51 50 51 55 58 61 64 62 58 58 62 65 67 68 69 67 65 65 67 66 63 61 64 69 68 66 68 73 78 78 72 73 80 75 65 62 66 68 65 60 65 69 66 64 61 58 56 49 42 44 41 28 18 14 12 10 9 8 7 5 4 4 4 3 3 3 3 3 3
40 36 32 31 33 36 38 36 36 38 38 41 44 46 49 52 56 58 54 50 50 53 58 61 62 64 63 61 62 64 64 65 66 67 67 66 66 65 64 60 59 64 69 68 63 63 67 76 84 81 80 89 87 72 66 70 71 67 59 59 65 65 62 60 56 55 52 44 40 39 31 20 14 11 10 9 8 6 5 4 3 3 3 3 3 4 3 3
37 34 31 32 35 38 38 37 38 39 40 42 45 49 52 55 59 59 53 49 52 56 61 62 62 63 62 61 63 65 65 65 64 65 66 67 67 66 63 61 61 63 65 64 61 59 61 69 85 92 90 96 96 79 69 70 69 67 62 56 60 63 61 59 55 52 52 50 44 40 35 25 16 12 10 9 8 6 5 4 3 4 4 4 4 4 3 3
35 33 32 34 36 38 38 38 39 39 40 43 47 51 55 58 61 58 51 50 53 58 61 62 62 62 61 60 60 62 64 63 62 64 66 68 68 67 65 62 63 63 61 62 61 59 60 66 83 99 101 102 102 88 74 69 65 65 64 57 56 61 61 58 54 47 46 48 45 41 36 27 18 13 10 9 8 6 5 4 4 4 4 3 4 4 3 3
34 33 34 35 36 38 39 39 39 38 40 45 49 53 57 60 62 58 51 50 54 58 60 61 60 59 60 60 59 61 61 59 59 64 69 72 72 69 67 65 65 64 61 61 61 59 60 64 77 94 100 102 103 94 83 73 62 61 63 59 55 57 58 56 53 47 43 42 41 38 34 27 19 13 11 9 8 7 5 4 4 3 3 3 3 4 3 3
35 35 35 36 37 37 38 38 38 39 42 46 50 54 58 61 61 58 54 52 54 58 60 60 59 59 60 61 61 62 61 57 58 65 71 76 76 71 69 69 69 67 63 61 61 60 61 62 67 79 90 97 100 98 91 78 62 55 57 56 53 53 54 55 54 50 45 41 39 37 33 27 19 13 11 10 8 7 5 4 3 3 3 3 3 3 3 3
36 36 36 37 37 37 37 38 39 41 44 48 51 55 59 61 60 59 57 56 57 59 60 60 61 61 62 64 64 63 61 57 59 65 71 77 78 75 73 75 74 69 64 61 61 62 64 63 60 65 75 87 97 101 97 81 61 51 51 50 50 51 53 54 53 51 49 46 43 40 35 30 22 14 11 10 8 7 5 3 3 3 3 3 3 3 3 3
Wind_Speed
57 55 52 51 53 54 53 51 49 47 44 41 40 41 41 41 41 41 41 41 40 41 41 42 42 44 45 45 46 48 49 50 51 52 53 54 54 54 55 55 56 58 60 62 64 65 67 69 70 72 73 75 76 78 79 80 82 83 83 83 82 79 76 73 71 70 70 71 72 73 73 74 75 76 77 78 79 79 80 80 81 81 82 82 83 84 84 85
55 54 54 52 52 53 52 50 48 46 43 40 39 40 41 42 42 42 41 41 41 41 42 43 44 45 46 47 49 50 51 52 52 53 53 53 54 54 55 56 58 60 62 64 66 67 69 70 71 73 75 76 78 79 80 82 82 81 80 77 75 73 71 71 71 71 72 73 74 75 75 76 77 78 79 80 81 82 82 82 83 84 85 85 86 87 87 88
54 54 54 53 52 52 51 49 47 46 44 42 40 40 40 42 42 42 42 42 42 42 43 44 45 46 48 49 51 52 52 52 52 53 53 53 54 54 55 57 60 62 64 66 67 69 70 71 73 74 76 77 79 80 81 80 78 75 73 71 71 71 72 73 74 74 75 76 76 77 77 78 79 80 81 82 83 84 84 84 85 86 87 88 88 89 90 90
53 54 53 53 52 52 51 49 48 47 46 45 43 42 42 42 42 42 42 42 43 44 45 46 46 47 49 50 51 52 51 51 52 52 52 53 54 55 57 60 62 64 66 67 68 70 71 73 74 76 77 78 79 78 76 74 71 70 70 71 72 73 74 75 76 77 77 78 78 79 79 80 80 81 82 82 83 84 84 85 85 86 87 88 89 90 91 91
51 52 53 53 52 51 50 49 48 48 47 46 45 44 43 42 41 41 42 43 44 45 46 46 47 48 49 49 50 50 50 51 51 51 52 53 55 57 60 62 64 66 67 68 69 71 72 74 76 77 78 77 76 73 70 69 69 70 72 73 74 75 76 76 77 78 78 78 78 78 79 79 79 80 81 82 82 83 83 84 85 86 87 88 89 90 91 91
49 51 52 52 52 50 49 48 48 47 46 46 45 44 43 42 41 42 42 43 44 45 45 46 47 47 48 48 49 49 50 50 50 51 53 55 58 60 62 64 66 67 68 70 71 72 74 75 76 76 74 72 70 69 69 70 71 72 73 74 75 75 75 75 75 75 75 76 76 77 77 78 79 80 81 81 82 83 83 84 85 86 87 88 89 90 91 92
47 49 51 52 51 49 48 47 47 46 46 45 45 44 42 41 41 42 42 43 43 43 44 45 46 46 47 48 49 49 49 49 51 53 55 58 60 62 64 65 67 68 70 71 72 73 74 74 73 71 69 68 68 69 70 71 72 72 72 72 72 71 71 71 71 72 73 74 74 75 76 77 78 78 79 80 80 81 82 83 84 85 86 87 88 89 90 91
46 46 48 51 50 49 48 47 46 46 45 45 44 42 41 41 41 42 42 41 42 43 44 44 45 46 47 48 48 48 49 50 53 56 58 60 62 63 65 67 68 69 70 71 72 72 71 69 67 66 67 68 69 69 69 69 68 68 67 67 67 67 68 68 68 68 69 69 70 70 71 72 74 75 76 76 77 78 79 80 81 82 83 84 85 87 88 89
46 44 44 47 49 48 48 47 46 45 44 43 42 41 41 41 42 42 41 41 42 42 43 45 46 46 47 47 47 48 50 53 56 58 60 61 63 65 66 68 69 70 71 71 69 67 65 65 65 66 67 67 66 65 64 64 63 63 63 63 63 63 63 63 62 63 63 64 64 65 66 68 70 72 72 73 74 75 77 78 79 80 80 81 83 84 85 86
45 44 42 42 45 47 47 46 45 44 42 42 41 41 41 41 42 41 41 41 42 42 43 44 45 45 45 46 47 50 53 55 58 59 61 62 64 66 67 68 69 69 68 66 64 63 63 64 65 64 63 62 61 60 60 59 59 59 58 58 58 58 57 58 57 57 59 60 60 61 62 64 68 70 70 71 72 74 76 77 78 79 80 80 82 83 84 85
44 44 42 40 42 44 45 44 43 42 41 41 41 41 41 41 40 40 40 41 41 42 42 43 43 43 45 47 50 53 55 57 59 60 62 63 64 65 67 67 67 65 62 61 61 62 62 61 60 59 58 57 56 55 55 55 54 54 53 53 54 54 54 55 55 54 55 56 58 58 58 61 66 68 68 68 69 71 73 75 77 77 78 79 80 81 82 84
42 42 41 39 39 41 42 42 41 40 40 41 41 40 40 39 39 39 39 39 40 41 41 42 43 45 47 50 53 55 57 58 60 61 62 63 64 65 64 63 61 60 59 60 59 58 56 55 54 54 53 52 51 51 50 50 50 50 49 50 50 51 52 52 53 52 53 54 56 56 54 59 66 66 66 66 67 70 71 73 75 76 77 77 78 78 80 82
41 40 39 39 38 38 39 38 38 39 39 39 39 38 38 37 37 37 38 38 40 41 42 44 46 48 50 53 55 56 57 59 60 61 62 62 62 60 58 57 57 58 57 56 54 53 51 51 50 49 49 48 47 47 47 47 46 46 47 47 48 49 50 51 51 52 52 53 55 54 51 56 65 65 64 65 66 69 70 73 75 76 77 77 78 78 79 81
41 39 38 38 38 37 36 36 36 37 37 37 37 36 36 36 36 37 38 40 41 43 45 46 49 51 53 54 56 57 58 58 59 60 59 58 56 55 55 55 55 54 52 50 49 48 47 47 46 46 45 45 44 44 44 44 44 44 45 47 48 49 51 50 50 50 52 53 55 54 50 54 63 65 64 64 65 67 69 72 74 75 76 76 78 79 80 81
41 40 38 37 37 37 37 36 36 36 35 35 35 35 36 36 37 38 40 42 44 45 47 49 51 52 54 55 55 56 57 57 56 55 53 52 52 52 52 52 50 48 46 45 44 44 44 43 43 42 42 42 42 41 42 42 43 44 45 47 48 49 52 52 51 50 52 54 57 57 51 53 62 65 64 64 65 67 68 70 72 73 75 76 78 79 80 81
41 41 39 37 37 37 37 37 36 36 35 35 36 36 37 39 39 41 42 44 45 47 49 51 52 53 53 53 54 54 53 52 50 49 49 50 50 49 47 45 44 43 42 41 41 41 41 40 39 39 39 39 39 40 41 42 44 45 47 49 50 52 53 55 55 53 55 58 61 61 55 56 63 67 65 64 66 68 69 71 72 73 75 76 78 80 81 83
40 40 40 38 37 36 36 35 35 35 35 36 36 38 39 40 42 43 44 45 47 48 50 51 51 51 51 51 50 49 47 47 47 47 47 46 44 42 41 40 40 39 39 39 38 38 37 37 37 37 37 37 38 39 41 44 46 48 51 53 54 57 58 59 60 59 60 62 64 65 61 61 67 71 69 66 67 68 70 72 73 74 76 77 79 81 83 84
38 39 39 39 38 37 36 35 35 35 35 36 37 39 40 42 43 44 45 46 47 48 48 48 48 48 47 46 44 44 44 44 44 44 42 40 38 37 37 37 37 36 36 36 36 35 35 35 35 35 36 37 39 41 43 46 48 51 54 57 58 61 64 64 65 64 64 65 67 67 64 66 71 74 74 72 70 70 71 73 74 75 77 78 80 82 83 84
34 36 37 37 37 36 36 35 35 36 36 37 38 39 40 41 42 43 44 44 44 44 44 44 44 43 41 41 41 41 42 41 39 37 36 35 35 36 36 35 34 33 33 33 33 33 33 33 34 35 37 40 43 46 48 50 52 55 58 60 61 62 65 68 68 68 67 66 68 68 66 68 73 74 77 77 75 74 74 75 76 76 77 78 80 81 82 82
30 33 34 35 36 36 36 36 36 36 36 37 38 38 39 39 40 40 40 40 40 40 40 39 38 37 37 38 39 38 37 35 33 32 32 33 33 33 33 32 31 31 31 31 31 31 32 34 36 39 42 46 49 52 54 55 57 59 61 62 63 63 65 69 70 70 71 69 68 68 66 70 74 75 78 79 78 78 78 78 78 78 78 78 79 80 80 81
26 28 30 32 33 34 34 34 34 34 35 35 35 35 35 35 35 35 35 36 36 35 34 33 33 34 35 35 34 32 31 30 30 31 31 31 31 30 29 29 29 29 30 30 32 34 36 39 43 46 49 51 54 56 58 59 60 61 63 63 65 65 66 69 71 72 74 73 70 68 66 70 74 75 78 80 79 80 80 80 79 79 79 79 79 80 81 82
22 24 26 27 29 30 31 31 31 31 31 31 30 29 29 30 31 32 32 31 30 30 30 31 32 32 31 29 28 27 28 29 29 29 29 28 27 27 26 26 27 30 33 35 37 41 44 47 49 52 54 56 57 58 60 61 62 63 64 65 66 67 66 68 71 73 76 76 73 68 66 70 74 75 78 79 80 81 80 80 79 79 79 79 80 80 81 82
18 20 21 23 24 25 25 26 26 25 25 24 24 25 26 27 28 28 26 25 26 27 28 29 28 27 25 24 24 25 26 27 26 26 25 25 25 24 24 25 29 34 38 41 43 47 50 52 54 56 57 58 59 60 61 62 65 66 66 67 68 70 70 69 70 72 75 77 76 70 65 69 75 76 77 79 79 80 80 79 79 78 79 79 80 80 80 81
15 16 17 17 18 18 19 19 19 19 19 20 22 23 24 24 23 22 22 23 25 26 25 24 23 22 21 22 23 24 24 23 23 23 24 23 24 25 27 31 36 41 45 47 49 52 54 56 57 58 58 59 60 62 63 65 67 69 70 71 71 73 74 74 73 73 74 76 79 75 66 66 75 77 78 78 78 78 79 79 79 79 80 80 80 80 80 81
13 13 13 12 13 13 13 14 15 16 18 19 20 20 19 19 19 20 21 22 22 21 20 19 19 19 19 20 21 21 20 21 21 22 23 25 28 31 34 38 43 48 50 52 54 55 56 57 58 60 61 62 63 65 67 68 70 71 73 74 75 75 76 77 77 77 76 76 80 81 72 67 73 79 80 79 78 78 78 78 78 79 79 79 80 81 81 82
12 11 11 10 10 11 12 13 14 15 16 15 15 15 16 17 18 19 20 19 17 16 16 17 17 18 18 18 18 18 18 19 21 24 28 32 35 38 41 45 49 51 53 54 55 57 58 59 61 62 64 65 67 69 70 71 72 73 75 76 77 78 78 79 80 81 80 79 82 85 81 74 75 80 81 79 78 78 77 76 76 77 77 78 79 80 81 81
13 12 11 10 11 11 12 12 12 12 12 12 13 14 15 16 17 16 15 13 12 13 15 15 16 15 15 16 16 16 18 20 25 30 34 38 41 44 47 49 52 53 55 56 57 59 61 62 63 65 67 69 70 72 73 74 76 76 77 78 79 80 80 81 83 84 84 83 84 87 86 82 80 81 81 78 78 77 76 75 75 75 76 77 77 78 79 80
13 12 11 11 11 11 10 9 9 9 10 11 12 13 14 14 12 11 11 9 10 13 13 13 13 13 13 14 15 18 22 26 30 35 39 43 46 49 51 53 54 57 58 59 61 62 63 65 66 68 70 72 74 75 77 78 79 79 80 81 82 83 83 84 85 86 86 86 87 87 87 85 81 82 83 79 78 78 76 75 74 74 75 75 76 77 78 79
14 13 12 10 9 8 7 7 7 8 9 10 11 11 10 9 9 9 9 9 10 12 11 11 11 11 13 15 19 25 30 33 37 41 44 46 49 51 53 55 58 61 63 64 65 65 67 68 70 71 73 75 77 79 80 81 82 82 82 83 84 85 86 87 87 88 88 88 89 89 89 88 83 83 84 81 79 79 77 76 75 75 75 75 76 77 77 79
13 11 9 7 6 5 6 6 7 8 8 8 7 7 7 7 8 9 10 8 8 9 9 10 11 13 16 20 25 30 34 37 41 43 45 47 49 52 56 59 62 65 68 69 69 70 70 72 73 74 75 77 79 81 82 84 85 85 86 85 85 86 87 88 89 90 90 90 91 92 91 92 88 85 83 81 79 79 78 77 76 75 75 75 76 76 77 77
9 7 6 5 5 4 4 5 6 6 5 4 4 6 6 6 8 9 9 7 6 7 9 11 14 17 21 26 29 33 37 40 43 45 47 50 53 56 58 61 63 65 68 70 71 72 73 73 74 76 77 78 79 82 84 86 88 89 90 90 88 87 88 89 90 91 92 93 94 94 93 93 92 88 84 81 79 78 77 77 76 75 75 74 74 74 75 75
7 6 5 4 3 3 4 4 3 2 3 5 6 7 7 7 8 7 6 5 6 8 11 15 18 22 27 31 34 36 39 42 44 46 49 51 53 55 57 59 61 62 65 68 70 72 73 74 75 76 78 79 80 82 85 88 91 92 94 95 95 93 92 93 93 92 93 95 97 97 95 94 93 91 87 84 81 79 78 77 76 75 74 74 74 73 73 74
6 4 3 1 2 2 2 2 3 5 6 7 7 8 8 8 7 6 6 7 9 12 16 19 23 28 31 33 36 38 40 42 45 47 49 50 52 54 56 59 61 63 66 69 71 73 73 75 76 78 80 83 84 85 87 89 93 95 97 99 101 102 101 101 101 98 95 96 99 100 99 96 93 90 88 85 83 81 79 78 77 76 76 75 74 73 73 73
3 2 1 1 0 2 4 5 7 7 8 9 8 8 7 7 6 7 8 11 13 16 21 25 28 31 33 35 37 39 41 43 45 47 49 51 53 55 58 60 62 64 67 70 73 75 76 77 79 81 83 86 88 90 91 93 96 98 101 103 105 108 108 108 108 106 102 100 101 102 102 99 94 90 88 85 83 81 79 79 78 77 76 75 74 74 74 74
2 1 1 2 4 6 7 8 9 9 10 10 8 7 7 6 7 10 12 15 18 21 25 29 31 32 33 36 38 39 41 43 45 48 50 53 55 56 57 59 61 64 67 70 72 76 79 81 82 85 87 89 91 93 94 97 99 101 103 106 108 110 112 111 111 110 107 104 104 104 103 100 96 92 89 86 84 81 80 79 78 78 77 76 75 74 74 73
2 2 4 6 8 9 10 10 11 11 11 9 7 7 8 8 11 14 16 19 23 26 28 30 31 32 34 36 38 39 41 44 47 49 52 54 56 57 58 60 62 65 68 71 73 75 80 83 85 87 89 91 93 96 98 100 102 105 107 109 110 112 114 114 112 111 109 105 105 107 105 101 98 94 91 88 85 82 81 80 79 79 78 76 75 74 73 72
5 7 9 10 11 11 12 12 12 11 9 8 7 8 10 12 15 17 19 23 26 27 29 30 32 33 35 36 37 38 41 44 48 50 53 56 58 58 59 61 63 66 69 71 74 76 80 84 87 89 91 93 95 97 100 103 105 108 109 111 112 113 115 117 118 116 114 109 106 109 110 105 102 99 94 90 88 86 85 84 82 81 80 78 77 75 74 74
9 11 12 13 13 13 13 12 13 10 7 8 9 10 12 15 17 19 22 25 27 28 29 31 32 33 35 36 37 39 42 45 48 51 53 56 58 59 60 62 64 66 69 72 74 77 80 84 89 91 93 95 96 98 101 104 107 109 112 114 115 117 117 119 123 123 121 116 111 111 113 109 104 102 98 95 93 90 88 87 85 83 82 80 78 76 75 74
13 13 14 15 14 14 13 12 12 9 7 10 11 12 15 18 19 22 24 26 27 28 29 30 32 33 34 36 37 40 43 45 48 51 53 56 59 60 61 63 65 67 70 73 75 78 81 85 90 93 95 96 97 99 102 105 107 110 113 115 117 119 120 121 123 126 126 122 117 114 115 113 108 105 102 98 96 93 90 88 86 84 82 80 78 77 75 74
15 15 15 15 15 15 14 12 10 9 9 12 13 15 17 19 21 24 25 26 27 28 29 30 31 33 34 36 38 41 43 46 48 51 53 56 58 59 61 63 65 68 72 75 77 80 83 86 90 94 96 96 98 101 104 107 109 111 113 116 119 121 122 121 122 125 127 125 123 120 119 117 113 108 104 100 98 96 93 90 87 85 83 81 79 78 77 75
17 17 17 15 14 14 14 11 9 10 12 14 15 17 19 21 23 24 25 26 26 27 28 29 31 33 34 37 40 42 44 47 50 52 54 56 57 59 61 63 65 69 74 77 80 82 84 87 90 94 97 98 101 104 106 108 111 113 115 118 121 123 125 125 124 125 127 127 125 124 123 120 115 111 106 102 100 98 95 92 89 87 86 83 82 81 80 78
18 18 17 16 14 12 11 10 9 11 14 15 16 18 19 22 23 24 24 26 26 27 28 29 31 33 35 38 41 43 45 48 50 52 54 56 58 60 61 63 66 70 74 78 81 84 85 87 90 95 98 100 102 104 106 108 111 114 116 119 122 124 126 128 128 127 129 130 127 124 124 122 117 112 107 103 101 100 98 96 93 90 88 86 84 82 81 79
18 18 17 16 14 11 10 10 11 13 14 15 17 18 19 21 22 23 24 25 26 27 28 29 30 33 35 39 42 44 46 48 50 53 55 57 58 60 61 62 66 70 74 78 82 85 87 88 90 93 96 98 101 103 105 108 111 114 117 120 122 125 126 128 129 129 130 132 130 125 123 122 118 114 109 105 103 102 100 98 96 92 88 85 83 81 79 77
18 17 16 15 13 11 11 12 12 13 14 15 16 17 19 20 21 22 24 25 26 26 27 28 30 33 36 39 41 43 46 49 51 53 55 57 58 59 61 62 66 70 74 78 82 86 89 92 94 96 98 99 102 104 107 109 112 115 118 121 123 125 127 128 129 128 128 131 132 128 123 121 119 115 111 107 103 101 98 96 94 91 88 84 82 80 78 76
18 16 15 13 11 12 12 12 12 13 13 15 15 17 18 19 20 22 23 24 25 26 27 29 31 34 36 39 41 44 47 49 51 54 55 56 57 59 60 62 66 70 74 77 81 85 89 93 97 100 104 106 109 112 113 113 114 115 117 121 124 126 128 129 130 130 128 128 131 131 125 121 119 116 111 107 102 99 95 92 90 88 86 84 83 81 80 78
17 15 13 11 11 13 12 10 11 12 12 14 15 16 18 19 20 22 23 24 24 25 27 29 32 35 37 39 41 44 47 50 52 54 55 56 57 59 60 62 66 71 74 77 80 83 87 92 97 101 105 108 111 114 116 116 116 116 117 120 123 127 129 131 131 132 130 128 128 130 128 123 120 117 112 107 103 99 95 91 89 87 86 85 84 84 83 81
16 13 12 11 12 12 10 9 10 11 11 12 13 15 17 19 20 21 22 23 24 25 26 29 32 35 37 40 43 46 48 50 53 55 56 57 58 59 61 63 68 72 75 77 80 83 86 90 94 99 103 106 109 112 115 116 117 117 118 120 123 127 128 130 131 132 133 132 131 132 131 127 123 120 116 110 106 101 98 95 93 92 91 90 88 85 83 80
16 13 11 12 12 11 9 8 9 9 10 11 12 14 16 18 19 20 22 24 24 25 26 28 31 34 37 40 43 46 49 51 53 55 56 58 59 60 62 65 69 72 74 77 80 83 86 89 92 97 101 103 106 110 113 115 116 118 119 121 124 126 128 129 131 132 134 137 137 136 135 132 128 124 120 114 109 105 103 100 97 95 93 90 87 84 80 77
15 13 11 11 11 10 8 7 8 8 8 9 10 13 15 17 18 19 22 24 25 25 26 28 30 33 37 40 43 45 47 50 52 54 56 58 59 61 63 66 69 72 74 77 81 83 86 89 92 95 99 101 104 108 112 114 116 117 118 121 123 126 128 129 131 133 134 137 139 139 138 135 131 127 122 117 113 109 106 102 97 94 91 88 85 82 79 75
13 12 11 10 9 8 7 7 7 7 7 7 9 11 13 15 17 19 21 23 25 26 26 27 29 33 36 40 42 44 46 48 51 53 56 58 60 62 64 67 69 72 76 78 81 84 86 89 92 95 98 99 101 106 110 114 116 116 117 119 121 124 128 130 133 135 136 137 138 139 138 136 132 129 125 121 116 110 106 101 96 93 91 88 85 83 80 76
12 11 10 9 8 7 6 6 6 6 6 6 7 9 12 13 15 18 20 23 25 26 26 27 29 33 37 40 43 45 47 49 51 53 56 58 61 63 65 67 70 73 76 79 82 84 87 90 93 95 97 99 101 105 109 112 115 115 115 118 121 125 130 133 136 138 139 139 139 140 140 138 134 130 127 122 117 112 108 103 99 95 93 91 88 84 81 77
11 10 8 7 7 6 6 5 5 5 6 6 6 8 10 12 14 17 20 23 25 25 26 28 31 35 38 41 44 45 47 49 51 54 56 59 61 64 66 68 71 73 76 79 81 84 87 90 94 96 98 99 101 105 109 112 114 116 117 121 124 128 132 136 138 139 140 141 142 142 142 141 137 133 129 124 120 117 113 108 104 101 98 94 90 86 82 78
Wind_Direction
224 226 227 226 226 227 229 231 232 234 237 241 244 246 248 249 251 253 256 259 262 265 267 269 271 272 273 275 276 278 279 281 282 284 285 287 287 287 288 288 288 289 290 290 290 290 290 291 291 291 291 291 291 292 292 292 293 293 293 293 292 292 291 291 290 290 289 289 289 289 289 289 289 288 288 287 287 286 285 284 283 283 281 280 280 279 278 277
223 225 226 227 227 228 231 233 235 237 240 244 248 250 252 253 255 257 259 261 264 266 268 270 272 273 275 276 277 279 280 282 283 285 286 287 288 288 289 289 290 291 291 291 291 291 291 291 292 292 292 293 293 293 294 294 294 294 294 294 293 293 292 292 292 291 291 291 291 290 290 290 289 288 288 287 286 285 285 284 284 283 282 281 280 280 279 278
222 224 226 226 227 228 231 235 238 240 242 245 249 252 255 257 257 258 260 263 265 267 270 272 274 275 276 277 278 280 281 283 284 286 287 288 289 290 290 291 292 292 292 292 292 292 293 293 293 293 294 294 295 295 295 295 295 295 294 294 294 293 293 293 293 293 292 291 291 290 289 289 288 287 287 286 286 285 285 284 284 283 282 282 281 280 280 279
221 223 225 226 227 228 229 232 236 239 243 245 249 252 255 257 258 259 261 264 266 269 271 273 274 275 277 278 279 281 282 284 285 286 288 289 290 290 291 292 293 293 293 294 294 294 294 295 295 295 295 296 296 296 296 295 295 295 295 295 295 295 294 294 294 293 292 292 291 290 289 289 288 288 287 286 286 286 285 285 284 284 283 282 282 281 280 280
221 223 225 227 228 228 229 230 234 237 241 244 247 251 254 256 257 259 261 264 267 269 271 273 275 276 277 279 280 282 283 285 286 287 288 289 290 291 292 293 294 294 294 295 295 295 296 296 296 296 297 297 296 296 296 296 296 296 296 296 296 296 295 295 294 294 294 293 293 292 292 291 290 289 289 288 287 287 286 285 284 284 283 282 282 281 281 280
222 223 225 227 229 230 230 231 233 236 239 243 247 251 254 256 258 260 262 265 268 270 272 273 275 277 278 279 281 283 285 287 287 288 289 290 292 293 294 294 295 295 296 296 297 297 297 297 298 297 297 297 297 297 298 298 298 298 298 297 297 296 296 296 296 296 296 296 295 295 294 293 292 291 289 288 288 287 286 285 284 283 282 281 281 280 280 279
224 223 224 227 230 231 233 234 235 237 240 244 248 251 255 257 259 261 264 266 268 270 272 274 276 277 279 280 282 285 287 287 288 290 291 292 293 294 295 295 296 296 297 297 298 298 298 298 298 298 298 299 299 300 300 300 299 299 299 299 299 299 299 299 299 299 298 298 297 296 295 294 292 291 290 289 288 287 286 285 284 283 282 281 281 280 279 279
226 226 223 225 229 231 233 236 237 239 242 245 248 252 255 257 260 262 264 266 268 271 273 275 276 278 280 282 284 286 287 288 290 292 293 293 294 295 295 296 297 297 298 298 299 299 299 299 300 300 301 301 301 301 301 301 301 301 301 302 302 302 301 301 300 300 299 298 297 296 296 295 293 291 290 290 289 288 286 285 284 283 282 282 281 280 280 279
227 229 226 223 226 231 233 236 238 240 242 244 247 251 254 257 260 262 265 267 270 272 274 276 278 280 282 284 285 287 288 290 292 293 294 294 295 296 296 297 298 298 299 299 300 300 301 301 302 302 302 302 302 303 303 304 304 304 304 304 304 303 303 302 301 301 300 300 299 299 298 297 295 293 292 292 291 290 288 287 286 285 284 284 283 282 282 281
226 230 230 224 224 228 232 235 238 240 242 245 248 251 254 258 260 263 266 269 271 273 275 277 279 282 284 285 287 289 290 292 293 294 295 296 296 297 298 298 299 299 300 301 302 302 303 303 303 304 304 305 306 307 307 307 307 307 307 306 306 305 305 305 304 304 303 303 302 301 301 299 296 295 295 295 294 293 292 290 289 289 287 286 285 285 284 283
225 229 231 228 225 227 231 234 237 240 243 246 250 252 256 259 262 265 267 270 272 274 277 279 281 284 286 287 289 291 292 293 295 296 296 297 297 298 299 299 300 301 302 303 304 305 305 305 306 307 308 309 309 310 309 309 309 309 309 310 310 309 308 307 307 306 305 304 303 302 302 300 297 296 296 296 295 294 292 291 290 289 288 287 286 285 284 283
225 227 230 230 228 229 231 235 238 241 244 247 250 253 256 260 263 266 268 270 272 274 277 280 284 286 288 290 292 293 294 295 296 296 297 298 298 299 300 301 303 304 305 306 306 306 307 308 309 310 311 312 312 312 312 312 313 313 313 313 312 311 309 309 308 308 307 306 305 304 305 302 299 298 298 297 296 295 294 293 292 291 289 288 287 286 285 284
227 227 228 230 230 231 233 236 239 242 244 247 250 254 258 261 264 267 269 271 273 276 279 283 287 289 291 293 294 295 295 296 296 297 298 299 300 302 303 304 305 306 307 307 308 309 311 312 313 313 314 314 315 316 316 316 316 316 315 314 313 312 312 313 314 314 314 312 309 308 308 305 301 301 300 299 298 297 296 294 293 292 291 291 289 287 286 285
228 229 229 229 230 231 233 235 238 241 244 247 251 256 259 262 265 268 270 273 275 278 282 286 290 292 294 294 294 295 296 296 297 298 300 301 303 305 306 307 307 308 310 311 312 314 315 315 316 317 318 318 318 318 318 318 318 318 318 318 319 319 318 319 320 321 319 317 313 311 312 309 305 304 303 302 300 299 297 295 294 293 292 291 289 288 286 285
228 230 231 231 231 232 233 235 237 240 244 248 252 256 259 263 265 268 272 275 278 282 286 290 292 293 294 294 294 295 297 298 299 301 303 305 306 307 308 309 311 313 314 316 316 317 318 319 320 319 319 319 319 320 320 321 321 322 324 325 326 327 326 325 324 324 323 321 318 315 317 315 310 307 306 305 303 300 298 296 295 294 293 292 290 289 288 286
227 230 232 234 235 235 236 237 240 242 245 249 253 257 260 263 267 270 274 278 282 286 289 291 292 292 293 294 295 296 298 300 302 304 306 308 308 310 311 313 315 317 318 319 320 321 322 322 321 319 320 321 322 323 324 327 328 330 332 333 334 332 331 329 328 328 327 325 322 320 323 321 314 309 308 308 305 303 301 299 297 296 295 293 292 291 290 288
227 230 232 235 237 238 239 241 243 246 249 252 256 260 263 267 270 274 278 281 285 287 289 290 290 291 293 294 296 298 301 304 306 308 309 310 312 314 316 318 320 322 322 323 322 322 321 320 320 321 324 325 326 329 332 336 337 339 339 339 339 337 335 334 333 333 332 330 327 326 329 325 317 313 311 310 307 306 304 302 300 299 297 295 294 292 290 289
227 230 232 235 237 240 242 244 247 250 253 256 260 263 267 270 274 277 281 284 285 286 287 288 290 292 294 296 300 303 306 308 309 310 312 314 316 319 322 324 325 324 323 322 322 322 322 322 324 326 328 330 333 337 340 343 343 344 344 343 343 341 338 336 336 336 334 332 329 330 333 327 318 315 314 312 310 309 306 304 302 300 299 297 295 293 292 292
225 228 231 234 237 241 244 247 250 253 256 260 263 267 270 274 277 279 281 282 283 285 286 289 291 294 298 302 306 307 308 309 311 314 318 321 323 325 327 327 326 323 321 322 324 326 327 329 332 334 337 340 344 346 347 348 348 348 347 345 345 343 340 338 337 336 334 334 332 333 335 327 319 317 314 313 313 311 308 306 304 302 301 299 297 296 294 293
222 225 229 233 236 240 244 248 251 255 259 262 266 269 272 275 277 278 279 280 282 284 287 291 296 301 305 307 308 309 310 313 317 322 325 327 329 329 328 327 326 324 324 326 329 331 335 339 342 346 349 351 352 352 351 351 351 350 348 346 345 345 342 339 338 336 334 334 334 335 336 327 320 318 314 313 314 312 309 308 307 305 303 301 299 297 295 294
217 221 226 230 234 239 243 247 251 255 259 263 267 270 272 274 275 276 277 280 284 288 294 299 304 306 307 308 311 313 317 322 326 329 330 331 330 329 328 327 327 329 334 338 341 345 350 353 354 356 357 357 356 355 353 352 352 351 349 348 346 346 345 341 339 338 334 334 336 337 337 329 321 317 314 314 314 312 311 311 309 307 305 303 301 298 296 294
212 217 221 226 231 236 241 246 251 255 260 263 266 268 269 271 273 276 279 284 290 296 301 304 305 307 310 313 318 323 328 331 332 331 330 330 329 329 329 330 336 343 350 355 356 359 0 0 360 360 359 359 358 356 355 353 352 352 351 349 347 346 347 344 341 339 336 334 335 338 339 330 321 317 316 315 315 314 313 312 310 308 306 304 301 299 297 295
207 212 217 223 229 234 240 245 250 254 258 260 262 264 267 270 274 279 285 293 299 302 304 306 310 314 318 323 329 333 334 334 331 330 329 329 330 333 337 344 353 358 2 5 4 4 4 3 2 1 0 359 358 357 356 354 353 353 352 351 349 347 347 346 343 341 338 335 334 338 341 332 322 319 318 317 317 316 315 312 311 309 306 304 302 300 298 296
199 205 211 218 224 230 235 240 244 248 252 255 259 263 268 273 280 287 295 300 303 306 310 315 320 324 329 334 337 337 335 332 330 332 333 337 343 351 358 3 6 8 9 8 7 6 5 4 2 1 1 360 359 358 357 357 355 354 354 352 351 349 348 346 344 343 340 336 334 337 342 334 324 320 319 320 320 319 316 315 313 310 307 305 304 302 300 298
185 192 198 205 211 217 224 230 237 243 248 254 260 266 273 282 292 298 302 306 309 314 321 326 330 335 340 341 338 334 331 330 334 340 347 356 3 8 11 12 12 12 11 9 8 7 5 4 3 1 1 1 0 359 359 359 358 356 355 354 352 351 350 347 345 344 342 339 335 336 340 336 328 323 323 324 324 321 318 316 314 311 309 308 306 304 303 302
165 170 177 184 194 205 216 226 235 242 249 257 266 277 287 295 300 303 308 314 319 327 334 338 341 345 344 338 333 330 332 341 352 1 7 12 14 14 15 14 13 12 12 10 8 8 6 5 4 2 2 2 1 0 360 360 359 358 357 355 353 352 351 348 346 345 344 341 338 337 338 337 333 327 326 327 325 322 319 317 314 312 311 309 307 306 305 304
153 160 169 180 193 205 215 225 234 244 257 270 281 292 298 303 306 312 320 325 331 339 345 348 349 347 339 332 331 338 351 2 10 14 16 17 16 16 15 14 13 11 12 11 9 9 7 6 4 4 3 2 2 1 0 360 360 359 358 357 355 354 352 350 348 347 345 342 340 339 337 337 336 330 328 329 326 323 320 318 316 314 312 310 309 308 306 305
154 161 171 181 191 201 212 227 243 261 275 286 295 302 305 311 320 329 335 339 346 352 354 351 346 340 336 339 349 3 13 17 18 19 19 19 18 16 15 14 13 11 11 12 11 9 8 6 5 4 3 2 1 1 0 360 -0 360 359 358 356 355 353 351 350 349 346 343 342 340 337 337 337 332 330 331 328 324 322 320 318 316 314 312 311 310 308 307
153 161 169 178 189 204 226 248 264 278 290 298 304 310 319 333 347 351 353 1 4 1 355 345 342 345 354 6 16 22 24 24 23 23 22 21 19 17 16 15 14 12 10 10 11 10 8 6 5 4 4 3 2 1 0 360 360 360 360 359 358 356 355 352 351 351 348 344 343 342 338 337 338 335 333 333 329 326 324 322 321 319 317 315 314 313 311 309
154 161 169 182 203 227 248 266 282 293 302 309 319 337 354 7 15 13 17 23 11 358 352 352 1 12 19 25 27 27 27 27 26 25 23 22 21 19 18 16 15 13 10 8 10 10 8 6 5 4 4 4 3 1 1 360 360 359 359 360 359 358 357 354 353 353 350 346 344 343 340 339 339 338 335 334 331 328 326 325 323 321 319 318 317 315 312 310
155 164 179 199 219 242 267 289 300 308 321 344 14 29 29 32 35 31 33 30 3 356 5 14 22 27 29 31 30 29 28 27 26 25 23 22 22 21 20 18 16 15 11 8 7 8 7 6 5 4 2 3 4 3 2 1 1 0 359 359 359 359 358 355 355 355 353 349 346 344 342 340 340 339 337 335 333 330 329 327 325 323 321 320 318 316 313 311
160 175 192 208 239 278 298 306 323 0 40 54 56 55 50 51 52 45 40 28 13 21 28 30 33 33 33 33 32 31 30 28 27 26 24 24 23 22 21 19 17 15 13 9 6 7 7 6 5 4 2 2 4 4 4 4 2 1 0 359 358 358 358 357 356 357 356 352 348 345 344 343 342 340 339 337 335 333 331 329 326 325 324 322 320 318 315 313
168 181 195 244 290 305 326 41 70 75 77 74 69 67 64 66 65 55 42 37 36 40 40 38 38 37 35 34 33 32 31 29 28 27 26 25 23 22 20 18 16 14 13 10 6 5 6 6 5 5 4 3 3 4 4 4 3 2 1 1 359 358 358 358 357 357 358 356 351 347 345 344 344 342 340 339 337 335 333 331 329 328 327 325 322 320 319 317
165 175 242 287 315 93 95 95 95 94 89 84 78 78 79 77 68 53 46 47 46 46 44 42 40 38 36 35 34 33 31 30 28 27 26 24 22 19 17 16 14 13 12 11 8 4 5 6 5 5 5 4 4 4 4 4 4 3 2 2 1 360 359 359 357 357 358 357 354 349 346 346 346 344 342 340 338 336 335 333 332 331 329 327 325 324 323 321
171 200 178 122 111 108 107 106 105 99 95 95 92 89 86 75 62 55 52 52 49 47 46 43 41 39 37 36 35 33 31 30 28 27 26 23 20 18 16 15 14 13 12 12 10 5 4 6 7 6 6 5 5 4 4 4 4 4 3 3 3 1 360 359 358 357 357 358 356 351 348 347 347 346 344 342 340 338 337 336 334 333 332 330 328 327 325 323
167 139 121 116 114 115 114 110 105 101 103 108 104 91 80 67 61 59 57 55 52 49 46 44 42 41 39 37 36 33 32 31 29 28 26 23 20 18 16 15 14 14 13 12 12 9 6 7 8 7 7 6 6 5 5 5 5 4 4 4 4 3 1 359 358 358 357 358 358 353 349 349 348 347 346 344 342 341 339 338 337 336 334 332 330 329 327 325
129 122 120 119 118 117 115 111 108 108 113 114 98 83 72 65 64 63 59 57 53 50 46 44 42 40 39 38 35 33 32 31 30 28 25 23 20 18 17 16 15 14 13 12 13 12 9 8 8 8 7 7 6 6 6 5 5 5 4 4 4 3 2 360 358 358 358 358 359 355 351 351 350 348 347 346 344 343 342 341 340 338 336 334 333 332 330 328
122 123 123 123 120 118 115 113 113 118 121 105 87 75 69 68 66 63 60 57 53 49 46 44 42 40 39 37 34 33 32 31 29 26 24 22 20 19 17 16 15 14 13 12 13 13 11 8 7 7 7 6 6 7 7 6 5 5 4 4 3 3 3 2 359 358 358 358 359 358 353 352 352 350 349 348 346 345 344 343 342 340 338 337 335 333 332 330
124 127 126 124 121 119 118 117 118 121 111 91 81 72 71 70 66 63 60 56 51 48 46 44 42 40 38 35 34 32 31 30 27 24 22 21 19 18 17 16 15 14 13 12 12 12 11 8 6 6 6 6 6 6 6 6 6 5 4 4 3 3 3 3 1 359 358 358 358 358 355 353 353 352 351 349 347 346 346 345 343 341 339 338 336 334 333 331
128 127 124 123 124 123 122 121 120 113 94 83 77 73 73 70 66 63 59 54 50 47 45 43 40 38 36 34 32 31 30 27 25 23 22 20 19 17 16 16 15 13 12 11 11 11 11 9 7 7 7 7 7 6 6 6 6 5 5 4 3 3 2 3 3 0 358 358 359 358 357 355 354 353 352 350 349 347 347 346 344 342 341 339 338 336 334 333
131 127 125 126 126 125 124 123 116 100 87 80 77 75 73 69 66 62 57 52 49 45 43 40 38 36 34 32 31 29 27 25 23 22 21 20 18 17 16 16 15 13 12 11 11 11 12 11 10 9 9 8 8 7 6 5 5 5 5 4 3 3 2 2 3 2 360 359 360 359 358 356 355 354 353 352 350 349 348 346 345 344 342 341 339 338 336 335
130 128 130 131 129 128 125 118 103 92 85 80 77 75 72 70 66 61 54 49 46 42 40 38 36 34 32 30 29 27 25 23 22 21 20 19 18 16 16 16 15 13 12 12 11 11 11 12 11 10 9 9 8 7 6 5 5 5 5 4 4 3 3 2 3 3 1 360 -0 1 359 356 355 355 354 353 351 350 349 348 346 345 344 342 341 339 337 335
128 130 133 132 132 133 123 107 96 89 84 81 79 76 72 69 65 58 52 47 43 40 39 38 35 32 30 28 27 25 23 22 21 20 19 18 17 16 16 15 14 13 12 12 11 10 9 10 10 9 9 8 7 7 6 6 5 6 6 5 4 4 3 3 3 3 2 0 360 1 0 358 356 355 355 354 353 352 351 349 347 345 344 343 341 339 338 336
130 134 135 135 135 127 109 100 94 88 85 83 80 75 71 66 61 56 49 44 40 38 38 37 33 30 28 27 25 23 22 21 20 19 18 17 16 15 15 14 13 12 12 11 11 9 8 7 7 7 7 8 7 7 7 6 6 6 6 5 4 4 3 3 3 3 3 2 360 360 1 359 357 357 356 355 354 353 351 349 347 345 344 343 342 340 339 337
135 138 139 139 131 113 102 97 92 88 86 83 79 73 68 63 57 53 47 40 36 37 37 35 31 28 26 25 23 22 21 20 19 18 17 16 15 14 13 13 12 11 11 11 10 9 7 5 5 5 5 6 7 6 6 6 6 6 6 6 5 4 4 3 3 2 3 3 1 0 1 0 359 358 357 355 354 354 352 350 348 347 346 345 343 342 341 340
140 144 143 135 117 106 102 97 91 89 86 83 78 71 64 59 55 49 43 37 34 35 36 32 28 26 23 22 21 20 19 19 18 17 16 15 14 13 12 11 11 10 9 9 9 8 7 5 4 5 5 5 6 6 5 5 5 6 6 6 5 4 4 3 3 2 2 3 3 2 1 1 360 358 357 356 355 354 353 352 350 349 348 347 346 344 343 342
144 148 142 125 110 106 104 96 90 90 87 83 77 68 61 57 53 46 39 34 32 33 33 29 26 23 21 19 19 18 17 17 16 15 14 14 13 12 11 10 9 9 8 8 8 8 8 6 4 4 4 4 4 5 5 4 4 5 5 6 6 5 4 3 2 2 2 2 4 3 2 2 1 359 358 357 355 355 354 354 353 352 351 349 348 346 345 343
145 144 131 114 108 107 103 94 89 88 87 84 75 65 59 56 51 42 34 32 31 30 29 26 23 21 19 18 16 16 16 15 15 14 13 12 11 10 9 9 8 8 8 8 8 9 9 7 5 4 4 4 3 4 5 4 4 4 5 5 6 5 4 3 2 2 3 3 4 4 4 3 2 1 359 357 356 356 356 356 355 354 352 351 349 347 345 343
143 135 121 112 109 107 101 93 87 86 85 83 74 63 58 55 48 38 32 30 28 26 25 22 20 18 17 16 15 15 15 14 14 14 13 12 10 9 9 8 8 8 8 8 8 8 9 8 7 5 4 4 3 3 5 4 4 4 5 5 6 5 4 4 3 2 3 4 4 5 4 3 2 1 360 358 358 358 357 356 356 354 353 351 350 348 347 345
138 128 118 111 107 104 101 91 84 82 82 81 72 61 57 53 43 34 30 28 25 23 22 19 17 16 15 14 14 14 14 14 14 14 13 12 11 9 9 8 8 8 8 8 8 8 9 9 8 6 5 5 4 3 4 4 4 4 5 5 5 5 4 4 4 3 4 4 5 5 5 4 3 2 1 359 358 358 357 357 356 355 354 353 352 350 349 347
135 125 117 108 103 102 97 87 77 75 78 80 70 59 55 50 38 31 28 25 22 21 19 17 15 13 13 13 13 13 13 13 14 13 12 11 10 9 9 8 8 7 7 7 7 7 8 8 8 7 6 5 4 4 4 4 3 3 4 4 5 5 5 5 5 4 4 4 5 5 5 5 4 3 3 1 359 358 358 357 356 357 357 355 354 353 351 350
135 126 116 107 103 97 88 78 68 67 76 81 68 56 53 45 33 27 23 21 19 18 17 15 13 11 11 11 11 11 12 12 13 12 11 10 9 9 8 7 7 7 7 7 7 6 7 7 8 7 6 6 5 4 4 4 4 3 4 5 5 6 6 6 5 5 5 5 5 6 6 6 5 4 3 2 360 359 358 358 357 358 358 357 356 354 354 353